Vorticity
nan nan nan nan nan nan nan nan nan nan nan nan nan nan nan nan nan nan nan nan nan nan nan nan nan nan nan nan nan nan nan nan nan nan nan nan nan nan
nan 9 7 8 9 9 10 10 10 10 11 9 10 8 8 8 7 8 9 5 2 7 8 8 7 8 9 9 10 8 5 6 6 6 7 8 8 nan
nan 9 8 8 7 8 9 10 11 11 9 10 11 8 7 8 7 8 8 9 2 3 8 7 8 8 8 8 9 6 5 5 6 7 8 8 8 nan
nan 8 7 8 9 8 8 9 9 10 12 10 8 7 7 7 7 7 9 9 5 4 6 7 7 8 8 8 8 6 6 7 7 8 8 8 8 nan
nan 9 8 7 7 8 9 8 8 9 11 10 9 8 8 9 8 7 8 10 7 5 8 7 4 6 9 8 7 7 8 7 7 8 8 8 7 nan
nan 10 9 9 8 7 8 8 8 8 9 9 9 9 8 8 7 10 9 8 8 7 8 8 7 5 7 9 5 4 6 7 6 7 9 8 7 nan
nan 10 10 10 10 7 7 9 8 7 8 8 8 9 10 8 8 8 8 11 9 7 8 9 9 8 7 8 2 3 6 7 7 8 8 7 8 nan
nan 9 10 10 9 9 8 9 8 8 7 7 9 10 9 8 9 7 9 10 9 7 8 9 9 8 8 7 2 3 7 8 8 8 8 7 8 nan
nan 8 8 11 12 10 11 10 8 8 9 10 10 10 10 9 8 8 7 7 7 7 11 10 8 8 9 9 4 2 8 9 8 9 8 8 8 nan
nan 10 10 9 8 9 10 9 9 10 9 10 11 10 10 9 6 7 8 9 11 8 10 9 7 9 10 12 3 1 8 8 10 10 7 8 9 nan
nan 10 7 12 12 6 3 9 9 8 9 9 9 10 9 8 7 7 8 8 10 9 10 8 8 11 12 11 2 4 7 8 10 10 7 7 9 nan
nan 14 12 9 14 6 4 8 8 9 9 9 9 9 8 10 9 6 9 10 10 9 9 8 8 12 14 7 5 9 6 6 10 8 8 8 15 nan
nan 12 19 15 11 9 3 4 10 12 9 7 9 10 10 9 10 11 10 10 9 8 7 11 9 10 10 7 10 8 7 11 10 6 6 7 10 nan
nan 9 16 19 11 7 5 9 9 5 7 10 10 9 9 10 11 11 10 9 8 8 9 12 9 8 9 9 9 7 9 11 9 8 8 6 8 nan
nan 14 13 14 12 13 10 10 4 4 9 10 9 10 10 11 10 10 10 10 9 10 11 9 8 9 9 9 7 7 10 12 9 8 9 10 11 nan
nan 11 14 14 13 13 15 9 8 10 10 10 10 10 10 10 9 10 10 9 10 11 10 9 10 8 8 9 9 10 11 9 8 10 10 11 10 nan
nan 10 12 12 12 12 13 11 12 12 10 11 11 10 9 9 10 10 10 9 10 10 9 9 8 10 11 11 9 9 9 9 9 9 11 11 10 nan
nan 10 11 11 10 9 11 11 12 11 10 10 10 10 10 10 9 9 10 9 9 9 9 8 9 11 13 14 9 7 9 8 9 10 11 11 10 nan
nan 11 11 11 11 10 10 10 11 11 11 10 11 10 10 11 10 9 9 9 9 9 9 9 10 9 9 11 12 8 6 9 10 9 10 10 9 nan
nan 12 11 11 11 11 10 10 10 11 11 11 11 11 11 11 10 10 9 9 9 9 9 10 10 10 10 9 9 7 10 12 8 9 9 11 10 nan
nan 11 12 11 11 11 11 11 10 9 10 11 11 12 11 10 10 10 11 11 7 8 9 9 9 10 11 11 9 7 10 11 8 6 7 8 11 nan
nan 13 12 11 12 11 11 10 11 10 10 11 11 11 11 11 11 10 10 10 9 9 9 9 11 11 9 8 7 10 8 8 10 12 13 9 6 nan
nan nan nan nan nan nan nan nan nan nan nan nan nan nan nan nan nan nan nan nan nan nan nan nan nan nan nan nan nan nan nan nan nan nan nan nan nan nan
CAPE
0 0 0 0 0 0 0 0 0 0 0 0 0 0 0 0 0 0 0 0 1 1 0 0 0 1 2 3 3 6 8 8 10 11 12 13 14 13
0 0 0 0 0 0 0 0 0 0 0 0 0 0 0 0 0 0 0 0 0 0 0 0 0 1 4 4 5 9 10 9 9 11 12 14 15 15
0 0 0 0 0 0 0 0 0 0 0 0 0 0 0 0 0 0 0 0 0 0 0 0 0 0 5 13 10 12 13 11 8 9 10 13 15 14
0 0 0 0 0 0 0 0 0 0 0 0 0 0 0 0 0 0 0 0 0 0 0 0 0 0 6 8 9 11 8 5 4 6 7 8 10 12
0 0 0 0 0 0 0 0 0 0 0 0 0 0 0 0 0 0 0 0 0 0 0 0 0 0 0 4 8 6 5 5 2 2 4 7 5 7
0 0 0 0 0 0 0 0 0 0 0 0 0 0 0 0 0 0 0 0 0 0 0 0 0 0 0 0 3 4 2 3 4 2 3 3 2 3
0 0 0 0 0 0 0 0 0 0 0 0 0 0 0 0 0 0 0 0 0 0 0 0 0 0 0 0 3 3 2 1 3 3 2 3 1 1
0 0 0 0 0 0 0 0 0 0 0 0 0 0 0 0 0 0 0 0 0 0 0 0 0 0 0 0 1 1 0 0 2 1 2 2 1 1
0 0 0 0 0 0 0 0 0 0 0 0 0 0 0 0 0 0 0 0 0 0 0 0 0 0 0 0 0 0 0 1 4 3 2 1 2 0
5 6 1 0 0 0 1 0 0 0 0 0 0 0 0 0 0 0 0 0 0 0 0 0 0 0 0 0 0 0 0 0 1 3 1 1 2 0
7 4 7 4 2 5 9 0 0 0 0 0 0 0 0 0 0 3 2 0 0 0 3 0 0 0 0 0 0 0 0 0 0 2 1 0 2 0
5 4 3 0 2 13 2 1 0 0 0 0 1 4 4 2 3 2 0 2 0 0 3 0 0 0 0 0 0 0 0 0 0 0 0 0 1 1
4 3 0 3 6 21 1 0 0 0 0 0 1 3 1 1 1 0 1 1 0 0 0 0 1 0 0 0 0 0 0 0 0 0 0 0 0 1
0 0 0 3 6 14 10 0 0 0 4 3 3 6 2 0 0 0 0 0 0 0 0 0 5 5 5 2 0 0 0 0 1 0 1 0 0 0
1 0 0 3 14 11 21 2 4 15 5 13 8 6 0 0 0 0 0 0 0 0 0 0 2 3 4 5 3 2 2 0 0 1 0 0 1 6
2 3 0 1 18 12 16 21 11 20 19 16 10 3 0 0 0 0 0 0 0 2 0 0 0 1 2 2 3 3 2 2 2 0 0 0 1 1
1 2 9 14 27 10 5 1 6 16 14 7 2 0 0 0 0 0 0 0 1 1 0 0 0 0 0 1 2 0 1 2 0 0 1 1 1 1
9 8 8 7 9 8 6 5 1 3 1 0 0 0 0 0 0 0 0 1 1 0 1 0 0 1 0 0 0 0 0 0 0 0 2 2 4 1
8 8 6 5 2 4 11 8 1 0 0 0 1 2 2 1 1 1 1 2 2 2 2 0 1 4 1 0 0 0 0 0 0 0 0 3 7 4
19 7 5 3 2 2 4 6 0 0 0 0 0 4 7 3 3 4 2 1 1 2 2 2 4 3 2 1 4 0 0 0 0 0 0 1 4 2
18 15 4 2 4 1 2 3 2 0 0 0 0 4 5 9 5 3 2 1 1 2 3 1 0 0 1 3 2 0 0 0 0 0 0 2 1 3
15 3 2 3 3 2 4 3 8 4 3 0 0 1 1 4 6 4 2 3 1 2 1 0 0 2 6 4 1 0 0 0 0 0 0 0 4 8
6 4 3 5 7 7 6 4 4 3 1 1 2 1 1 3 2 2 3 3 2 2 2 2 3 3 2 2 2 2 0 0 0 0 0 0 0 0